Flag for Greece Weather past 2 weeks in Alexandroupoli, Greece

Now
68 °F

Passing clouds.


Feels Like: 68 °F
Forecast: 61 / 76 °F
Wind: 3 mph from North

Location: Alexandroupoli Airport

Current Time: May 30, 2015 at 9:49:59 PM

Latest Report: May 30, 2015 at 8:50 PM


Visibility: N/A

Pressure: 29.98 "Hg

Humidity: 60%

Dew point: 54 °F

Location of AlexandroupoliLocation

Historic Weather in Alexandroupoli — Graph

°F

Alexandroupoli temperature yesterday

Maximum temperature yesterday: 70 °F (at 2:50 PM)
Minimum temperature yesterday: 61 °F (at 7:20 AM)
Average temperature yesterday: 65 °F

Past Weeks' High & Low Weather Summary

 TemperatureHumidityPressure
High88 °F (May 18, 2:50 PM)100% (May 27, 11:50 PM)30.12 "Hg (May 27, 11:50 PM)
Low57 °F (May 30, 6:50 AM)31% (May 19, 2:50 PM)29.65 "Hg (May 27, 2:50 PM)
Average70 °F67%29.85 "Hg
* Reported May 15 8:20 PM — May 30 8:20 PM, Alexandroupoli, Weather by CustomWeather, © 2015

Note: Actual official high and low records may vary slightly from our data, if they occured in-between our weather recording intervals... More about our weather records

Advertising

Alexandroupoli weather history for previous 24 hours

 ConditionsComfort  
Time TempWeatherWind HumidityBarometerVisibility
8:20 PM
Sat, May 30
68 °FPassing clouds.6 mph60%29.95 "HgN/A
7:50 PM70 °FPassing clouds.6 mph57%29.95 "HgN/A
7:20 PM70 °FScattered clouds.8 mph53%29.95 "HgN/A
6:50 PM72 °FScattered clouds.9 mph50%29.95 "HgN/A
6:20 PM72 °FScattered clouds.9 mph50%29.95 "HgN/A
5:50 PM72 °FScattered clouds.7 mph50%29.95 "HgN/A
5:20 PM75 °FScattered clouds.9 mph47%29.95 "HgN/A
4:50 PM75 °FScattered clouds.12 mph47%29.95 "HgN/A
4:20 PM75 °FScattered clouds.13 mph44%29.98 "HgN/A
3:50 PM73 °FScattered clouds.12 mph47%29.98 "HgN/A
3:20 PM73 °FScattered clouds.9 mph47%29.98 "HgN/A
2:50 PM73 °FScattered clouds.9 mph47%29.98 "HgN/A
2:20 PM72 °FScattered clouds.9 mph44%29.98 "HgN/A
1:50 PM72 °FScattered clouds.9 mph44%29.98 "HgN/A
1:20 PM70 °FScattered clouds.8 mph50%29.98 "HgN/A
12:50 PM70 °FScattered clouds.9 mph50%29.98 "HgN/A
12:20 PM70 °FScattered clouds.9 mph46%29.98 "HgN/A
11:50 AM70 °FScattered clouds.9 mph46%29.98 "HgN/A
11:20 AM70 °FPassing clouds.8 mph57%29.98 "HgN/A
10:50 AM70 °FPassing clouds.9 mph57%29.98 "HgN/A
10:20 AM70 °FPassing clouds.9 mph60%29.98 "HgN/A
9:50 AM70 °FPassing clouds.9 mph60%29.98 "HgN/A
9:20 AM68 °FPassing clouds.5 mph60%29.95 "HgN/A
8:50 AM66 °FPassing clouds.5 mph64%29.95 "HgN/A
8:20 AM63 °FSunny.No wind68%29.95 "Hg10 mi
7:50 AM61 °FSunny.No wind72%29.95 "Hg10 mi
7:20 AM59 °FPassing clouds.3 mph82%29.95 "HgN/A
6:50 AM57 °FPassing clouds.No wind88%29.95 "HgN/A
11:50 PM
Fri, May 29
61 °FPassing clouds.5 mph77%29.92 "HgN/A
11:20 PM63 °FPassing clouds.5 mph77%29.92 "HgN/A
10:50 PM63 °FPassing clouds.5 mph77%29.92 "HgN/A
10:20 PM63 °FPassing clouds.6 mph73%29.92 "HgN/A
9:50 PM63 °FPassing clouds.6 mph73%29.92 "HgN/A
9:20 PM64 °FPartly sunny.5 mph68%29.92 "HgN/A
Weather by CustomWeather, © 2015

See weather overviewHow to use our weather pages